FW0014 Weather Reports


time (UTC)temp
F
wind
direction
speed
knots
gust
knots
rain 1hr
in
rain 24hr
in
rain mn
in
humidity
%
barometer
mb
20260902070315 78 138 1.7 2.6 0.00 0.00 0.00 71 1017.7
20260902070054 77 138 1.7 2.6 0.00 0.00 0.00 70 1014.7
20260902065833 78 138 1.7 2.6 0.00 0.00 0.00 70 1017.7
20260902065544 78 138 0.0 2.6 0.00 0.00 0.00 70 1014.7
20260902065350 78 138 0.0 2.6 0.00 0.00 0.00 69 1017.5
20260902065006 78 138 0.0 2.6 0.00 0.00 0.00 69 1014.6
20260902064829 78 138 0.9 2.6 0.00 0.00 0.00 69 1017.6
20260902064558 78 138 0.9 1.7 0.00 0.00 0.00 69 1014.8
20260902064326 79 138 0.0 0.9 0.00 0.00 0.00 69 1017.7
20260902064049 78 138 0.0 0.9 0.00 0.00 0.00 69 1014.7
20260902063823 79 139 0.0 0.9 0.00 0.00 0.00 69 1017.8
20260902063544 78 138 0.0 0.9 0.00 0.00 0.00 69 1014.9
20260902063321 79 138 0.0 0.9 0.00 0.00 0.00 69 1017.9
20260902063032 78 139 0.0 0.9 0.00 0.00 0.00 69 1014.8
20260902062818 79 138 0.0 0.9 0.00 0.00 0.00 69 1017.7
20260902062524 78 138 0.0 1.7 0.00 0.00 0.00 69 1014.8
20260902062315 79 138 0.0 1.7 0.00 0.00 0.00 69 1017.8
20260902062006 78 139 0.0 3.5 0.00 0.00 0.00 69 1014.9
20260902061831 79 138 0.9 3.5 0.00 0.00 0.00 69 1017.9
20260902061600 78 139 0.0 7.0 0.00 0.00 0.00 69 1014.9
20260902061351 79 116 1.7 7.0 0.00 0.00 0.00 70 1017.7
20260902061034 78 134 3.5 7.0 0.00 0.00 0.00 70 1014.9
20260902060826 78 130 0.9 4.3 0.00 0.00 0.00 69 1017.7
20260902060523 78 190 0.9 2.6 0.00 0.00 0.00 69 1014.8
20260902060325 78 71 0.9 2.6 0.00 0.00 0.00 68 1017.8
20260902060128 78 71 0.9 4.3 0.00 0.00 0.00 68 1014.8
20260902055819 79 71 0.9 4.3 0.00 0.00 0.00 68 1017.9
20260902055540 79 71 1.7 4.3 0.00 0.00 0.00 68 1014.8
20260902055315 79 35 2.6 4.3 0.00 0.00 0.00 68 1017.9
20260902055032 79 124 0.0 5.2 0.00 0.00 0.00 67 1014.7
20260902054814 79 126 0.9 5.2 0.00 0.00 0.00 67 1017.8
20260902054522 79 149 0.9 5.2 0.00 0.00 0.00 67 1014.7
20260902054330 79 149 0.9 5.2 0.00 0.00 0.00 67 1017.6
20260902054006 79 172 0.0 0.0 0.00 0.00 0.00 66 1014.7
20260902053850 79 172 0.0 0.9 0.00 0.00 0.00 66 1017.7
20260902053541 79 172 0.0 0.9 0.00 0.00 0.00 66 1014.7
20260902053322 79 172 0.0 0.9 0.00 0.00 0.00 66 1017.7
20260902053102 79 173 0.0 0.9 0.00 0.00 0.00 66 1014.6
20260902052839 79 172 0.0 0.9 0.00 0.00 0.00 66 1017.6
20260902052550 79 172 0.0 0.9 0.00 0.00 0.00 65 1014.5
20260902052330 80 172 0.0 0.0 0.00 0.00 0.00 65 1017.5
20260902052042 79 173 0.0 0.9 0.00 0.00 0.00 65 1014.4
20260902051829 80 172 0.0 0.9 0.00 0.00 0.00 65 1017.5
20260902051532 79 173 0.0 0.9 0.00 0.00 0.00 64 1014.5
20260902051325 80 172 0.0 0.9 0.00 0.00 0.00 64 1017.5
20260902051027 80 173 0.0 0.9 0.00 0.00 0.00 64 1014.5
20260902050844 80 173 0.0 0.9 0.00 0.00 0.00 64 1017.5
20260902050547 80 172 0.0 0.9 0.00 0.00 0.00 64 1014.5
20260902050320 80 172 0.0 1.7 0.00 0.00 0.00 64 1017.5
20260902050016 80 173 0.0 1.7 0.00 0.00 0.00 64 1014.5
20260902045827 80 173 0.0 1.7 0.00 0.00 0.00 64 1017.4
20260902045500 80 173 0.0 0.9 0.00 0.00 0.00 64 1014.5
20260902045325 81 172 0.0 0.0 0.00 0.00 0.00 64 1017.4
20260902045054 80 173 0.0 1.7 0.00 0.00 0.00 64 1014.5
20260902044825 81 173 0.0 1.7 0.00 0.00 0.00 64 1017.4
20260902044545 80 173 0.0 1.7 0.00 0.00 0.00 63 1014.5
20260902044322 81 172 0.9 1.7 0.00 0.00 0.00 63 1017.5
20260902044007 80 172 0.9 1.7 0.00 0.00 0.00 63 1014.6
20260902043821 81 173 0.9 1.7 0.00 0.00 0.00 63 1017.5
20260902043600 80 173 0.0 0.9 0.00 0.00 0.00 62 1014.6
20260902043339 81 172 0.0 0.0 0.00 0.00 0.00 62 1017.6
20260902043055 81 172 0.0 2.6 0.00 0.00 0.00 62 1014.6
20260902042830 81 173 0.0 2.6 0.00 0.00 0.00 62 1017.4
20260902042550 81 173 0.0 2.6 0.00 0.00 0.00 62 1014.5
20260902042329 82 173 1.7 2.6 0.00 0.00 0.00 62 1017.4
20260902042045 81 137 0.9 1.7 0.00 0.00 0.00 61 1014.5
20260902041846 82 137 0.0 0.9 0.00 0.00 0.00 61 1017.4
20260902041510 81 137 0.0 0.9 0.00 0.00 0.00 61 1014.4
20260902041322 82 138 0.0 0.9 0.00 0.00 0.00 60 1017.5
20260902041002 82 137 0.0 0.9 0.00 0.00 0.00 60 1014.5
20260902040820 82 137 0.0 0.9 0.00 0.00 0.00 60 1017.4
20260902040556 82 137 0.0 0.9 0.00 0.00 0.00 60 1014.5
20260902040318 82 137 0.0 0.9 0.00 0.00 0.00 60 1017.4
20260902040048 82 137 0.0 1.7 0.00 0.00 0.00 60 1014.5
20260902035835 83 138 0.0 1.7 0.00 0.00 0.00 60 1017.4
20260902035518 82 137 0.0 1.7 0.00 0.00 0.00 60 1014.4
20260902035332 83 137 0.9 1.7 0.00 0.00 0.00 60 1017.3
20260902035005 82 138 0.0 0.9 0.00 0.00 0.00 60 1014.4
20260902034829 83 137 0.0 0.9 0.00 0.00 0.00 59 1017.4
20260902034555 82 137 0.0 0.9 0.00 0.00 0.00 59 1014.3
20260902034326 83 137 0.0 0.9 0.00 0.00 0.00 59 1017.3
20260902034046 83 137 0.0 0.9 0.00 0.00 0.00 59 1014.3
20260902033843 83 138 0.0 0.0 0.00 0.00 0.00 58 1017.3
20260902033517 83 137 0.0 0.9 0.00 0.00 0.00 58 1014.4
20260902033319 83 137 0.0 1.7 0.00 0.00 0.00 58 1017.3
20260902033106 83 137 0.0 1.7 0.00 0.00 0.00 58 1014.2
20260902032816 84 137 0.0 1.7 0.00 0.00 0.00 58 1017.3
20260902032552 83 137 0.9 1.7 0.00 0.00 0.00 58 1014.1
20260902032314 84 137 0.9 0.9 0.00 0.00 0.00 57 1017.2
20260902032044 83 137 0.0 0.9 0.00 0.00 0.00 57 1014.2
20260902031832 84 137 0.0 0.9 0.00 0.00 0.00 57 1017.2
20260902031536 84 137 0.0 0.9 0.00 0.00 0.00 57 1014.1
20260902031330 84 137 0.9 0.9 0.00 0.00 0.00 57 1016.9
20260902031028 84 137 0.0 1.7 0.00 0.00 0.00 56 1014.0
20260902030827 85 137 0.9 2.6 0.00 0.00 0.00 56 1016.8
20260902030510 84 137 0.0 2.6 0.00 0.00 0.00 56 1013.9
20260902030325 85 137 0.0 2.6 0.00 0.00 0.00 56 1016.8
20260902030109 84 137 0.9 2.6 0.00 0.00 0.00 56 1013.7
20260902025843 85 137 0.9 1.7 0.00 0.00 0.00 56 1016.6
20260902025532 85 138 0.9 1.7 0.00 0.00 0.00 56 1013.7
20260902025320 85 137 0.9 1.7 0.00 0.00 0.00 56 1016.6
20260902025026 85 138 0.0 1.7 0.00 0.00 0.00 55 1013.5
20260902024818 85 138 0.9 1.7 0.00 0.00 0.00 55 1016.5
20260902024517 85 137 0.0 0.0 0.00 0.00 0.00 54 1013.4
20260902024315 86 137 0.0 0.0 0.00 0.00 0.00 54 1016.4
20260902024100 85 138 0.0 0.9 0.00 0.00 0.00 54 1013.3
20260902023848 86 137 0.0 1.7 0.00 0.00 0.00 55 1016.3
20260902023531 85 138 0.0 1.7 0.00 0.00 0.00 55 1013.1
20260902023325 86 138 0.0 1.7 0.00 0.00 0.00 55 1016.1
20260902023032 86 137 0.9 2.6 0.00 0.00 0.00 55 1012.9
20260902022822 86 138 1.7 2.6 0.00 0.00 0.00 55 1016.0
20260902022504 86 137 0.9 2.6 0.00 0.00 0.00 54 1012.9
20260902022340 86 137 1.7 2.6 0.00 0.00 0.00 54 1015.9
20260902022054 86 137 0.9 1.7 0.00 0.00 0.00 54 1013.0
20260902021830 87 137 0.9 1.7 0.00 0.00 0.00 54 1015.9
20260902021549 87 137 0.9 1.7 0.00 0.00 0.00 53 1012.9
20260902021326 87 138 0.0 0.0 0.00 0.00 0.00 53 1015.9
20260902021036 87 137 0.0 0.0 0.00 0.00 0.00 53 1012.7
20260902020824 87 137 0.0 0.0 0.00 0.00 0.00 53 1015.8
20260902020528 87 137 0.0 0.0 0.00 0.00 0.00 52 1012.8
20260902020321 88 137 0.0 0.0 0.00 0.00 0.00 52 1015.7
20260902020021 87 138 0.0 0.0 0.00 0.00 0.00 52 1012.6
20260902015819 88 137 0.0 0.0 0.00 0.00 0.00 52 1015.8
20260902015602 87 137 0.0 0.0 0.00 0.00 0.00 52 1012.6
20260902015336 88 137 0.0 0.0 0.00 0.00 0.00 52 1015.6
20260902015036 88 138 0.0 0.0 0.00 0.00 0.00 51 1012.5
20260902014832 88 138 0.0 0.0 0.00 0.00 0.00 51 1015.5
20260902014517 88 120 0.0 0.0 0.00 0.00 0.00 51 1012.4
20260902014330 89 117 0.0 0.0 0.00 0.00 0.00 51 1015.5
20260902014008 88 131 0.0 0.0 0.00 0.00 0.00 51 1012.4
20260902013829 89 145 0.0 0.0 0.00 0.00 0.00 51 1015.4
20260902013600 89 145 0.0 0.0 0.00 0.00 0.00 51 1012.4
20260902013327 89 137 0.0 0.0 0.00 0.00 0.00 50 1015.4
20260902013054 89 138 0.0 0.0 0.00 0.00 0.00 50 1012.4
20260902012826 89 129 0.0 0.0 0.00 0.00 0.00 50 1015.4
20260902012551 89 133 0.0 0.0 0.00 0.00 0.00 50 1012.4
20260902012325 90 139 0.0 0.0 0.00 0.00 0.00 49 1015.4
20260902012049 89 94 0.0 0.0 0.00 0.00 0.00 49 1012.3
20260902011823 90 127 0.0 0.0 0.00 0.00 0.00 49 1015.4
20260902011530 90 100 0.0 0.0 0.00 0.00 0.00 49 1012.3
20260902011322 90 93 0.0 0.0 0.00 0.00 0.00 49 1015.3
20260902011024 90 104 0.0 0.0 0.00 0.00 0.00 48 1012.2
20260902010821 91 106 0.0 0.0 0.00 0.00 0.00 48 1015.2
20260902010507 90 102 0.0 0.0 0.00 0.00 0.00 48 1012.2
20260902010321 91 118 0.0 0.0 0.00 0.00 0.00 48 1015.2
20260902010100 91 89 0.0 0.0 0.00 0.00 0.00 47 1012.2
20260902005819 91 109 0.0 0.0 0.00 0.00 0.00 47 1015.2
20260902005553 91 106 0.0 0.0 0.00 0.00 0.00 47 1012.2
20260902005318 91 93 0.0 0.0 0.00 0.00 0.00 47 1015.3
20260902005046 91 87 0.0 0.0 0.00 0.00 0.00 47 1012.2
20260902004836 92 89 0.0 0.0 0.00 0.00 0.00 47 1015.3
20260902004519 91 71 0.0 0.0 0.00 0.00 0.00 46 1012.2
20260902004314 92 20 0.0 0.0 0.00 0.00 0.00 46 1015.2
20260902004003 92 151 0.0 0.0 0.00 0.00 0.00 46 1012.3
20260902003814 92 116 0.0 0.0 0.00 0.00 0.00 46 1015.3
20260902003557 92 111 0.0 0.0 0.00 0.00 0.00 46 1012.3
20260902003333 93 108 0.0 0.0 0.00 0.00 0.00 46 1015.3
20260902003055 92 79 0.0 0.0 0.00 0.00 0.00 46 1012.3
20260902002852 93 114 0.0 0.0 0.00 0.00 0.00 45 1015.3
20260902002517 93 89 0.0 0.0 0.00 0.00 0.00 45 1012.3
20260902002329 93 121 0.0 0.0 0.00 0.00 0.00 45 1015.3
20260902002015 93 83 0.0 0.0 0.00 0.00 0.00 45 1012.3
20260902001829 93 105 0.0 0.0 0.00 0.00 0.00 45 1015.3
20260902001504 93 106 0.0 0.0 0.00 0.00 0.00 44 1012.3
20260902001329 94 96 0.0 0.0 0.00 0.00 0.00 44 1015.4
20260902001055 93 122 0.0 0.0 0.00 0.00 0.00 44 1012.3
20260902000847 94 96 0.0 0.0 0.00 0.00 0.00 44 1015.3
20260902000528 93 111 0.0 0.0 0.00 0.00 0.00 44 1012.3
20260902000346 94 106 0.0 0.0 0.00 0.00 0.00 43 1015.3
20260902000115 94 93 0.0 0.0 0.00 0.00 0.00 43 1012.2
20260901235842 94 143 0.0 0.0 0.00 0.00 0.00 43 1015.3
20260901235526 94 129 0.0 0.0 0.00 0.00 0.00 43 1012.2
20260901235341 94 118 0.0 0.0 0.00 0.00 0.00 43 1015.1
20260901235052 94 139 0.0 0.0 0.00 0.00 0.00 43 1012.2
20260901234819 94 127 0.0 0.0 0.00 0.00 0.00 43 1015.3
20260901234544 94 132 0.0 0.0 0.00 0.00 0.00 43 1012.3
20260901234318 94 137 0.0 0.0 0.00 0.00 0.00 43 1015.3
20260901234036 94 135 0.0 0.0 0.00 0.00 0.00 43 1012.3
20260901233819 94 142 0.0 0.0 0.00 0.00 0.00 43 1015.3
20260901233530 94 142 0.0 0.0 0.00 0.00 0.00 43 1012.3
20260901233337 94 154 0.0 0.0 0.00 0.00 0.00 43 1015.4
20260901233054 94 159 0.0 0.0 0.00 0.00 0.00 43 1012.4
20260901232815 94 145 0.0 0.0 0.00 0.00 0.00 43 1015.4
20260901232546 94 151 0.0 0.0 0.00 0.00 0.00 43 1012.4
20260901232314 94 115 0.0 0.0 0.00 0.00 0.00 43 1015.4
20260901232038 93 113 0.0 0.0 0.00 0.00 0.00 43 1012.4
20260901231814 94 112 0.0 0.0 0.00 0.00 0.00 43 1015.4
20260901231533 93 100 0.0 0.0 0.00 0.00 0.00 43 1012.4
20260901231350 94 138 0.0 0.0 0.00 0.00 0.00 43 1015.5
20260901231057 93 125 0.0 0.0 0.00 0.00 0.00 43 1012.4
20260901230826 94 118 0.0 0.0 0.00 0.00 0.00 43 1015.4
20260901230552 93 132 0.0 0.0 0.00 0.00 0.00 43 1012.4
20260901230326 94 133 0.0 0.0 0.00 0.00 0.00 43 1015.5
20260901230054 93 152 0.0 0.0 0.00 0.00 0.00 42 1012.4
20260901225825 94 116 0.0 0.0 0.00 0.00 0.00 42 1015.5
20260901225539 94 110 0.0 0.0 0.00 0.00 0.00 42 1012.4
20260901225323 94 100 0.0 0.0 0.00 0.00 0.00 42 1015.4
20260901225032 94 141 0.0 0.0 0.00 0.00 0.00 42 1012.3
20260901224824 95 152 0.0 0.0 0.00 0.00 0.00 42 1015.4
20260901224528 94 112 0.0 0.0 0.00 0.00 0.00 41 1012.2
20260901224323 95 82 0.0 0.0 0.00 0.00 0.00 41 1015.3
20260901224010 95 104 0.0 0.0 0.00 0.00 0.00 41 1012.3
20260901223821 95 105 0.0 0.0 0.00 0.00 0.00 41 1015.3
20260901223502 95 78 0.0 0.0 0.00 0.00 0.00 41 1012.1
20260901223342 95 48 0.0 0.0 0.00 0.00 0.00 41 1015.3
20260901223037 95 78 0.0 0.0 0.00 0.00 0.00 41 1012.2
20260901222839 95 143 0.0 0.0 0.00 0.00 0.00 41 1015.2
20260901222526 95 79 0.0 0.0 0.00 0.00 0.00 42 1012.2
20260901222331 95 96 0.0 0.0 0.00 0.00 0.00 42 1015.2
20260901222013 95 97 0.0 0.0 0.00 0.00 0.00 42 1012.1
20260901221830 95 89 0.0 0.0 0.00 0.00 0.00 42 1015.3
20260901221507 94 104 0.0 0.0 0.00 0.00 0.00 43 1012.2
20260901221329 95 73 0.0 0.0 0.00 0.00 0.00 43 1015.3
20260901221007 94 79 0.0 0.0 0.00 0.00 0.00 42 1012.3
20260901220826 95 112 0.0 0.0 0.00 0.00 0.00 42 1015.3
20260901220559 95 46 0.0 0.0 0.00 0.00 0.00 42 1012.3
20260901220324 95 86 0.0 0.0 0.00 0.00 0.00 42 1015.4
20260901220112 95 83 0.0 0.0 0.00 0.00 0.00 42 1012.4
20260901215823 95 102 0.0 0.0 0.00 0.00 0.00 43 1015.4
20260901215541 95 60 0.0 0.0 0.00 0.00 0.00 42 1012.3
20260901215320 95 14 0.0 0.0 0.00 0.00 0.00 42 1015.3
20260901215033 95 37 0.0 0.0 0.00 0.00 0.00 42 1012.4
20260901214839 96 75 0.0 0.0 0.00 0.00 0.00 42 1015.4
20260901214519 95 45 0.0 0.0 0.00 0.00 0.00 42 1012.4
20260901214329 96 60 0.0 0.0 0.00 0.00 0.00 42 1015.4
20260901214001 95 64 0.0 0.0 0.00 0.00 0.00 42 1012.5
20260901213825 96 63 0.0 0.0 0.00 0.00 0.00 41 1015.4
20260901213555 95 101 0.0 0.0 0.00 0.00 0.00 42 1012.5
20260901213322 96 76 0.0 0.0 0.00 0.00 0.00 42 1015.6
20260901213108 95 66 0.0 0.0 0.00 0.00 0.00 42 1012.4
20260901212840 95 95 0.0 0.0 0.00 0.00 0.00 42 1015.6
20260901212531 95 91 0.0 0.0 0.00 0.00 0.00 42 1012.6
20260901212330 95 130 0.0 0.0 0.00 0.00 0.00 42 1015.6
20260901212014 95 14 0.0 0.0 0.00 0.00 0.00 42 1012.6
20260901211829 95 108 0.0 0.0 0.00 0.00 0.00 42 1015.7
20260901211506 95 47 0.0 0.0 0.00 0.00 0.00 41 1012.7
20260901211326 96 52 0.0 0.0 0.00 0.00 0.00 42 1015.7
20260901211058 95 51 0.0 0.0 0.00 0.00 0.00 42 1012.8
20260901210843 96 48 0.0 0.0 0.00 0.00 0.00 42 1015.8
20260901210527 95 60 0.0 0.0 0.00 0.00 0.00 42 1012.9
20260901210319 95 116 0.0 0.0 0.00 0.00 0.00 42 1016.0
20260901210020 95 73 0.0 0.0 0.00 0.00 0.00 43 1013.0
20260901205816 95 102 0.0 0.0 0.00 0.00 0.00 43 1016.0
20260901205505 95 151 0.0 0.0 0.00 0.00 0.00 42 1013.0
20260901205400 95 148 0.0 0.0 0.00 0.00 0.00 42 1016.1
20260901205035 95 147 0.0 0.0 0.00 0.00 0.00 42 1013.1
20260901204830 95 156 0.0 0.0 0.00 0.00 0.00 42 1016.3
20260901204534 94 177 0.0 0.0 0.00 0.00 0.00 42 1013.2
20260901204327 95 197 0.0 0.0 0.00 0.00 0.00 42 1016.3
20260901204007 94 231 0.0 0.0 0.00 0.00 0.00 42 1013.2
20260901203824 94 231 0.0 0.0 0.00 0.00 0.00 43 1016.3
20260901203603 94 145 0.0 0.0 0.00 0.00 0.00 42 1013.3
20260901203342 94 142 0.0 0.0 0.00 0.00 0.00 43 1016.4
20260901203048 94 81 0.0 0.0 0.00 0.00 0.00 43 1013.3
20260901202819 94 128 0.0 0.0 0.00 0.00 0.00 44 1016.4
20260901202521 94 145 0.0 0.0 0.00 0.00 0.00 43 1013.4
20260901202337 94 68 0.0 0.0 0.00 0.00 0.00 44 1016.5
20260901202049 94 103 0.0 0.0 0.00 0.00 0.00 43 1013.5
20260901201831 95 137 0.0 0.0 0.00 0.00 0.00 43 1016.5
20260901201507 94 123 0.0 0.0 0.00 0.00 0.00 43 1013.5
20260901201344 95 129 0.0 0.0 0.00 0.00 0.00 44 1016.6
20260901201040 94 46 0.0 0.0 0.00 0.00 0.00 44 1013.5
20260901200820 95 82 0.0 0.0 0.00 0.00 0.00 43 1016.5
20260901200535 94 26 0.0 0.0 0.00 0.00 0.00 43 1013.5
20260901200318 94 157 0.0 0.0 0.00 0.00 0.00 43 1016.7
20260901200019 94 110 0.0 0.0 0.00 0.00 0.00 44 1013.5
20260901195814 94 113 0.0 0.0 0.00 0.00 0.00 44 1016.7
20260901195502 93 148 0.0 0.0 0.00 0.00 0.00 44 1013.7
20260901195331 94 145 0.0 0.0 0.00 0.00 0.00 44 1016.8
20260901195056 93 127 0.0 0.0 0.00 0.00 0.00 44 1013.9
20260901194829 94 162 0.0 0.0 0.00 0.00 0.00 44 1016.9
20260901194551 93 83 0.0 0.0 0.00 0.00 0.00 44 1013.9
20260901194328 94 118 0.0 0.0 0.00 0.00 0.00 45 1016.9
20260901194039 93 152 0.0 0.0 0.00 0.00 0.00 45 1014.0
20260901193824 94 170 0.0 0.0 0.00 0.00 0.00 45 1017.0
20260901193530 93 158 0.0 0.0 0.00 0.00 0.00 45 1014.0
20260901193321 94 137 0.0 0.0 0.00 0.00 0.00 46 1017.0
20260901193022 93 70 0.0 0.0 0.00 0.00 0.00 46 1014.0
20260901192839 94 88 0.0 0.0 0.00 0.00 0.00 46 1017.0
20260901192513 93 129 0.0 0.0 0.00 0.00 0.00 46 1014.1
20260901192330 93 123 0.0 0.0 0.00 0.00 0.00 46 1017.2
20260901192102 93 160 0.0 0.0 0.00 0.00 0.00 46 1014.2
20260901191829 94 118 0.0 0.0 0.00 0.00 0.00 46 1017.3
20260901191551 93 106 0.0 0.0 0.00 0.00 0.00 46 1014.2
20260901191326 94 128 0.0 0.0 0.00 0.00 0.00 46 1017.2
20260901191052 93 54 0.0 0.0 0.00 0.00 0.00 46 1014.2
20260901190825 93 52 0.0 0.0 0.00 0.00 0.00 46 1017.3
20260901190546 93 83 0.0 0.0 0.00 0.00 0.00 46 1014.3
20260901190323 93 107 0.0 0.0 0.00 0.00 0.00 46 1017.3
20260901190039 93 122 0.0 0.0 0.00 0.00 0.00 46 1014.3
20260901185839 93 46 0.0 0.0 0.00 0.00 0.00 46 1017.3
20260901185527 93 103 0.0 0.0 0.00 0.00 0.00 46 1014.4
20260901185330 93 100 0.0 0.0 0.00 0.00 0.00 46 1017.4
20260901185015 92 92 0.0 0.0 0.00 0.00 0.00 47 1014.5
20260901184847 93 104 0.0 0.0 0.00 0.00 0.00 46 1017.6
20260901184549 92 149 0.0 0.0 0.00 0.00 0.00 48 1014.6
20260901184343 92 52 0.0 0.0 0.00 0.00 0.00 47 1017.6
20260901184009 92 35 0.0 0.0 0.00 0.00 0.00 48 1014.7
20260901183843 93 83 0.0 0.0 0.00 0.00 0.00 47 1017.8
20260901183543 92 68 0.0 0.0 0.00 0.00 0.00 47 1014.8
20260901183321 93 51 0.0 0.0 0.00 0.00 0.00 47 1017.7
20260901183045 93 42 0.0 0.0 0.00 0.00 0.00 48 1014.8
20260901182818 93 84 0.0 0.0 0.00 0.00 0.00 48 1017.8
20260901182527 92 359 0.0 0.0 0.00 0.00 0.00 48 1014.9
20260901182318 92 101 0.0 0.0 0.00 0.00 0.00 48 1018.1
20260901182021 92 85 0.0 0.0 0.00 0.00 0.00 48 1015.1
20260901181815 92 100 0.0 0.0 0.00 0.00 0.00 49 1018.2
20260901181521 91 119 0.0 0.0 0.00 0.00 0.00 48 1015.2
20260901181353 92 119 0.0 0.0 0.00 0.00 0.00 48 1018.2
20260901181042 92 177 0.0 0.0 0.00 0.00 0.00 48 1015.3
20260901180830 92 110 0.0 0.0 0.00 0.00 0.00 48 1018.4
20260901180501 91 181 0.0 0.0 0.00 0.00 0.00 48 1015.4
20260901180328 92 156 0.0 0.0 0.00 0.00 0.00 48 1018.5
20260901180053 91 197 0.0 0.0 0.00 0.00 0.00 49 1015.5
20260901175825 92 151 0.0 0.0 0.00 0.00 0.00 48 1018.5
20260901175545 91 166 0.0 0.0 0.00 0.00 0.00 48 1015.6
20260901175345 92 53 0.0 0.0 0.00 0.00 0.00 48 1018.7
20260901175019 91 73 0.0 0.0 0.00 0.00 0.00 49 1015.6
20260901174820 92 145 0.0 0.0 0.00 0.00 0.00 49 1018.7
20260901174505 91 113 0.0 0.0 0.00 0.00 0.00 49 1015.5
20260901174319 92 85 0.0 0.0 0.00 0.00 0.00 49 1018.6
20260901174100 91 182 0.0 0.0 0.00 0.00 0.00 49 1015.7
20260901173838 92 140 0.0 0.0 0.00 0.00 0.00 49 1018.8
20260901173533 91 66 0.0 0.0 0.00 0.00 0.00 50 1015.7
20260901173315 91 106 0.0 0.0 0.00 0.00 0.00 50 1018.7
20260901173013 91 120 0.0 0.0 0.00 0.00 0.00 52 1015.7
20260901172848 91 174 0.0 0.0 0.00 0.00 0.00 52 1018.8
20260901172545 90 120 0.0 0.0 0.00 0.00 0.00 52 1015.7
20260901172344 91 134 0.0 0.0 0.00 0.00 0.00 52 1018.8
20260901172009 90 330 0.0 0.0 0.00 0.00 0.00 52 1015.9
20260901171840 90 118 0.0 0.0 0.00 0.00 0.00 53 1018.9
20260901171542 90 124 0.0 0.0 0.00 0.00 0.00 53 1016.0
20260901171315 90 179 0.0 0.0 0.00 0.00 0.00 52 1019.0
20260901171036 89 201 0.0 0.0 0.00 0.00 0.00 53 1016.0
20260901170853 90 198 0.0 0.0 0.00 0.00 0.00 53 1019.1
20260901170557 89 241 0.0 0.0 0.00 0.00 0.00 54 1016.2
20260901170331 90 215 0.0 0.0 0.00 0.00 0.00 54 1019.2
20260901170101 89 211 0.0 0.0 0.00 0.00 0.00 53 1016.4
20260901165829 90 168 0.0 0.0 0.00 0.00 0.00 54 1019.5
20260901165539 89 139 0.0 0.0 0.00 0.00 0.00 55 1016.4
20260901165325 89 354 0.0 0.0 0.00 0.00 0.00 54 1019.4
20260901165031 89 163 0.0 0.0 0.00 0.00 0.00 55 1016.5
20260901164825 89 172 0.0 0.0 0.00 0.00 0.00 55 1019.4
20260901164526 89 139 0.0 0.0 0.00 0.00 0.00 54 1016.5
20260901164321 89 154 0.0 0.0 0.00 0.00 0.00 54 1019.4
20260901164008 88 115 0.0 0.0 0.00 0.00 0.00 54 1016.4
20260901163818 89 139 0.0 0.0 0.00 0.00 0.00 56 1019.5
20260901163559 88 147 0.0 0.0 0.00 0.00 0.00 56 1016.5
20260901163400 88 236 0.0 0.0 0.00 0.00 0.00 58 1019.3
20260901163032 87 359 0.0 0.0 0.00 0.00 0.00 57 1016.4
20260901162830 88 194 0.0 0.0 0.00 0.00 0.00 57 1019.4
20260901162513 87 210 0.0 0.0 0.00 0.00 0.00 58 1016.4
20260901162326 88 217 0.0 0.0 0.00 0.00 0.00 59 1019.4
20260901162005 87 279 0.0 0.0 0.00 0.00 0.00 59 1016.4
20260901161847 87 246 0.0 0.0 0.00 0.00 0.00 59 1019.4
20260901161541 87 222 0.0 0.0 0.00 0.00 0.00 59 1016.5
20260901161322 87 218 0.0 0.0 0.00 0.00 0.00 58 1019.5
20260901161037 87 224 0.0 0.0 0.00 0.00 0.00 58 1016.5
20260901160840 87 181 0.0 0.0 0.00 0.00 0.00 59 1019.5
20260901160527 87 117 0.0 0.0 0.00 0.00 0.00 61 1016.5
20260901160332 87 124 0.0 0.0 0.00 0.00 0.00 61 1019.4
20260901160010 86 226 0.0 0.0 0.00 0.00 0.00 61 1016.5
20260901155828 87 68 0.0 0.0 0.00 0.00 0.00 61 1019.4
20260901155601 86 169 0.0 0.0 0.00 0.00 0.00 63 1016.5
20260901155324 86 218 0.0 0.0 0.00 0.00 0.00 63 1019.4
20260901155053 85 218 0.0 0.0 0.00 0.00 0.00 62 1016.4
20260901154841 86 159 0.0 0.0 0.00 0.00 0.00 62 1019.4
20260901154524 85 138 0.0 0.0 0.00 0.00 0.00 63 1016.5
20260901154317 86 126 0.0 0.0 0.00 0.00 0.00 63 1019.4
20260901154015 85 170 0.0 0.0 0.00 0.00 0.00 64 1016.5
20260901153815 85 152 0.0 0.0 0.00 0.00 0.00 64 1019.4
20260901153540 85 131 0.0 0.0 0.00 0.00 0.00 65 1016.5
20260901153331 85 133 0.0 0.0 0.00 0.00 0.00 65 1019.5
20260901153033 84 134 0.0 0.0 0.00 0.00 0.00 65 1016.5
20260901152851 85 174 0.0 0.0 0.00 0.00 0.00 66 1019.5
20260901152553 84 146 0.0 0.0 0.00 0.00 0.00 67 1016.5
20260901152329 84 147 0.0 0.0 0.00 0.00 0.00 67 1019.5
20260901152045 83 230 0.0 0.0 0.00 0.00 0.00 68 1016.5
20260901151825 84 213 0.0 0.0 0.00 0.00 0.00 68 1019.6
20260901151535 83 116 0.0 0.0 0.00 0.00 0.00 69 1016.6
20260901151323 83 197 0.0 0.0 0.00 0.00 0.00 70 1019.5
20260901151026 83 220 0.0 0.0 0.00 0.00 0.00 70 1016.5
20260901150820 83 136 0.0 0.0 0.00 0.00 0.00 72 1019.4
20260901150517 82 246 0.0 0.0 0.00 0.00 0.00 72 1016.6
20260901150319 82 246 0.0 0.0 0.00 0.00 0.00 73 1019.6
20260901150107 82 247 0.0 0.0 0.00 0.00 0.00 73 1016.6
20260901145851 82 188 0.0 0.0 0.00 0.00 0.00 73 1019.6
20260901145533 81 183 0.0 0.0 0.00 0.00 0.00 74 1016.7
20260901145330 82 168 0.0 0.0 0.00 0.00 0.00 74 1019.6
20260901145014 81 244 0.0 0.0 0.00 0.00 0.00 76 1016.8
20260901144829 81 243 0.0 0.0 0.00 0.00 0.00 76 1019.6
20260901144507 80 255 0.0 0.0 0.00 0.00 0.00 76 1016.7
20260901144326 81 259 0.0 0.0 0.00 0.00 0.00 76 1019.7
20260901144101 80 232 0.0 0.0 0.00 0.00 0.00 76 1016.8
20260901143844 80 267 0.0 0.0 0.00 0.00 0.00 77 1019.7
20260901143531 80 237 0.0 0.0 0.00 0.00 0.00 77 1016.8
20260901143322 80 239 0.0 0.0 0.00 0.00 0.00 77 1019.7
20260901143023 79 212 0.0 0.0 0.00 0.00 0.00 77 1016.7
20260901142819 80 212 0.0 0.0 0.00 0.00 0.00 77 1019.8
20260901142504 79 213 0.0 0.0 0.00 0.00 0.00 77 1016.8
20260901142316 79 213 0.0 0.0 0.00 0.00 0.00 78 1019.8
20260901142057 79 199 0.0 0.0 0.00 0.00 0.00 78 1016.9
20260901141853 79 241 0.0 0.0 0.00 0.00 0.00 79 1019.8
20260901141517 79 222 0.0 0.0 0.00 0.00 0.00 79 1016.9
20260901141351 79 222 0.0 0.0 0.00 0.00 0.00 79 1019.7
20260901141049 78 224 0.0 0.0 0.00 0.00 0.00 79 1016.9
20260901140829 79 224 0.0 0.0 0.00 0.00 0.00 79 1019.8
20260901140540 78 224 0.0 0.0 0.00 0.00 0.00 80 1017.0
20260901140326 78 224 0.0 0.0 0.00 0.00 0.00 80 1019.7
20260901140042 78 224 0.0 0.0 0.00 0.00 0.00 80 1016.8
20260901135822 78 261 0.0 0.0 0.00 0.00 0.00 81 1019.7
20260901135555 77 261 0.0 0.0 0.00 0.00 0.00 81 1016.8
20260901135339 78 261 0.0 0.0 0.00 0.00 0.00 81 1019.7
20260901135042 77 261 0.0 0.0 0.00 0.00 0.00 81 1016.7
20260901134831 77 261 0.0 0.0 0.00 0.00 0.00 81 1019.7
20260901134537 76 261 0.0 0.0 0.00 0.00 0.00 81 1016.7
20260901134329 77 261 0.0 0.0 0.00 0.00 0.00 82 1019.6
20260901134019 76 208 0.0 0.0 0.00 0.00 0.00 82 1016.7
20260901133844 76 208 0.0 0.0 0.00 0.00 0.00 82 1019.7
20260901133547 76 208 0.0 0.0 0.00 0.00 0.00 82 1016.6
20260901133323 76 208 0.0 0.0 0.00 0.00 0.00 83 1019.5
20260901133046 75 208 0.0 0.0 0.00 0.00 0.00 83 1016.6
20260901132820 75 208 0.0 0.0 0.00 0.00 0.00 83 1019.5
20260901132529 75 208 0.0 0.0 0.00 0.00 0.00 83 1016.7
20260901132317 75 208 0.0 0.0 0.00 0.00 0.00 83 1019.5
20260901132021 74 208 0.0 0.9 0.00 0.00 0.00 83 1016.7
20260901131814 74 208 0.0 0.9 0.00 0.00 0.00 83 1019.6
20260901131548 74 208 0.0 0.9 0.00 0.00 0.00 83 1016.7
20260901131330 74 208 0.0 0.9 0.00 0.00 0.00 83 1019.5
20260901131042 73 208 0.0 0.9 0.00 0.00 0.00 83 1016.6
20260901130828 74 208 0.0 0.9 0.00 0.00 0.00 83 1019.5
20260901130538 73 208 0.0 0.9 0.00 0.00 0.00 83 1016.5
20260901130325 73 208 0.0 0.0 0.00 0.00 0.00 83 1019.4
20260901130043 73 208 0.0 0.0 0.00 0.00 0.00 82 1016.4
20260901125825 73 208 0.0 0.0 0.00 0.00 0.00 82 1019.2
20260901125530 73 208 0.0 0.9 0.00 0.00 0.00 82 1016.4
20260901125321 73 208 0.0 0.9 0.00 0.00 0.00 82 1019.2
20260901125056 73 208 0.0 0.9 0.00 0.00 0.00 82 1016.2
20260901124819 73 208 0.0 0.9 0.00 0.00 0.00 82 1019.1
20260901124547 73 208 0.0 1.7 0.00 0.00 0.00 82 1016.2
20260901124317 73 208 0.0 1.7 0.00 0.00 0.00 82 1019.1
20260901124040 73 208 0.0 1.7 0.00 0.00 0.00 83 1016.2
20260901123816 73 208 0.9 1.7 0.00 0.00 0.00 83 1019.1
20260901123533 73 208 0.0 1.7 0.00 0.00 0.00 83 1016.2
20260901123318 73 208 0.0 1.7 0.00 0.00 0.00 83 1019.2
20260901123027 73 208 0.0 1.7 0.00 0.00 0.00 82 1016.2
20260901122815 73 208 0.0 1.7 0.00 0.00 0.00 82 1019.0
20260901122511 73 208 0.0 0.9 0.00 0.00 0.00 82 1016.0
20260901122332 73 208 0.0 0.9 0.00 0.00 0.00 82 1018.9
20260901122007 73 208 0.0 0.0 0.00 0.00 0.00 82 1015.8
20260901121846 73 208 0.0 0.0 0.00 0.00 0.00 82 1018.7
20260901121537 73 208 0.0 1.7 0.00 0.00 0.00 81 1015.8
20260901121324 73 208 0.0 1.7 0.00 0.00 0.00 81 1018.7
20260901121031 73 208 0.0 1.7 0.00 0.00 0.00 81 1015.7
20260901120823 73 208 0.9 1.7 0.00 0.00 0.00 81 1018.7
20260901120525 73 208 0.0 1.7 0.00 0.00 0.00 81 1015.8
20260901120340 73 208 0.9 1.7 0.00 0.00 0.00 81 1018.8
20260901120055 73 208 0.9 1.7 0.00 0.00 0.00 81 1015.8
20260901115817 73 208 0.9 1.7 0.00 0.00 0.00 80 1018.8
20260901115540 73 208 0.0 1.7 0.00 0.00 0.00 80 1015.8
20260901115313 74 208 0.9 1.7 0.00 0.00 0.00 80 1018.6
20260901115035 73 208 0.9 1.7 0.00 0.00 0.00 80 1015.7
20260901114850 74 208 0.0 0.9 0.00 0.00 0.00 80 1018.6
20260901114601 73 208 0.0 0.0 0.00 0.00 0.00 80 1015.7
20260901114329 74 208 0.0 0.0 0.00 0.00 0.00 81 1018.6
20260901114050 73 208 0.0 0.0 0.00 0.00 0.00 80 1015.7
20260901113829 74 208 0.0 0.0 0.00 0.00 0.00 80 1018.7
20260901113541 74 208 0.0 1.7 0.00 0.00 0.00 79 1015.6
20260901113329 74 208 0.0 1.7 0.00 0.00 0.00 79 1018.7
20260901113033 74 208 0.0 1.7 0.00 0.00 0.00 80 1015.7
20260901112826 74 208 0.9 1.7 0.00 0.00 0.00 80 1018.6
20260901112556 74 208 0.0 1.7 0.00 0.00 0.00 80 1015.7
20260901112325 75 208 0.9 1.7 0.00 0.00 0.00 80 1018.7
20260901112048 74 208 0.0 1.7 0.00 0.00 0.00 80 1015.7
20260901111823 75 208 0.0 1.7 0.00 0.00 0.00 79 1018.6
20260901111546 74 208 0.0 1.7 0.00 0.00 0.00 79 1015.6
20260901111321 75 208 0.0 1.7 0.00 0.00 0.00 80 1018.5
20260901111035 74 208 0.0 1.7 0.00 0.00 0.00 80 1015.7
20260901110820 75 208 0.9 1.7 0.00 0.00 0.00 80 1018.6
20260901110526 74 208 0.0 1.7 0.00 0.00 0.00 79 1015.6
20260901110317 75 208 0.9 1.7 0.00 0.00 0.00 79 1018.5
20260901110019 75 208 0.0 1.7 0.00 0.00 0.00 79 1015.6
20260901105815 75 208 0.0 1.7 0.00 0.00 0.00 79 1018.6
20260901105505 75 208 0.0 1.7 0.00 0.00 0.00 79 1015.6
20260901105314 75 208 0.9 1.7 0.00 0.00 0.00 79 1018.6
20260901105101 75 208 0.9 1.7 0.00 0.00 0.00 79 1015.7
20260901104831 75 208 0.9 1.7 0.00 0.00 0.00 78 1018.6
20260901104554 75 208 0.9 1.7 0.00 0.00 0.00 78 1015.7
20260901104327 75 208 0.9 1.7 0.00 0.00 0.00 78 1018.7
20260901104041 75 208 0.9 2.6 0.00 0.00 0.00 78 1015.7
20260901103823 76 208 0.9 2.6 0.00 0.00 0.00 78 1018.7
20260901103506 75 208 0.9 2.6 0.00 0.00 0.00 77 1015.6
20260901103340 76 208 1.7 2.6 0.00 0.00 0.00 77 1018.5
20260901103037 76 208 1.7 2.6 0.00 0.00 0.00 77 1015.5
20260901102816 76 208 2.6 2.6 0.00 0.00 0.00 77 1018.4
20260901102530 76 208 0.0 1.7 0.00 0.00 0.00 77 1015.4
20260901102333 77 208 0.0 1.7 0.00 0.00 0.00 76 1018.3
20260901102011 76 208 0.0 5.2 0.00 0.00 0.00 76 1015.3
20260901101830 77 208 0.9 5.2 0.00 0.00 0.00 76 1018.3
20260901101502 76 208 0.9 5.2 0.00 0.00 0.00 76 1015.3
20260901101326 77 208 2.6 5.2 0.00 0.00 0.00 76 1018.3
20260901101058 76 210 1.7 4.3 0.00 0.00 0.00 76 1015.4
20260901100823 77 217 2.6 4.3 0.00 0.00 0.00 76 1018.4
20260901100548 76 216 2.6 4.3 0.00 0.00 0.00 76 1015.4
20260901100321 77 223 2.6 5.2 0.00 0.00 0.00 76 1018.3
20260901100043 76 219 2.6 5.2 0.00 0.00 0.00 76 1015.4
20260901095838 77 216 2.6 5.2 0.00 0.00 0.00 76 1018.4
20260901095513 77 214 2.6 4.3 0.00 0.00 0.00 76 1015.5
20260901095314 77 207 3.5 4.3 0.00 0.00 0.00 75 1018.4
20260901095058 77 220 1.7 4.3 0.00 0.00 0.00 75 1015.4
20260901094833 77 218 2.6 4.3 0.00 0.00 0.00 75 1018.2
20260901094551 77 218 2.6 5.2 0.00 0.00 0.00 75 1015.2
20260901094330 77 213 2.6 5.2 0.00 0.00 0.00 75 1018.3
20260901094041 77 182 2.6 5.2 0.00 0.00 0.00 75 1015.4
20260901093829 77 187 2.6 3.5 0.00 0.00 0.00 75 1018.3
20260901093537 77 187 1.7 3.5 0.00 0.00 0.00 75 1015.4
20260901093327 78 187 2.6 4.3 0.00 0.00 0.00 75 1018.4
20260901093022 77 187 1.7 5.2 0.00 0.00 0.00 75 1015.4
20260901092825 78 187 2.6 5.2 0.00 0.00 0.00 75 1018.5
20260901092502 77 187 2.6 5.2 0.00 0.00 0.00 75 1015.6
20260901092322 78 186 2.6 4.3 0.00 0.00 0.00 75 1018.5
20260901092059 78 186 2.6 4.3 0.00 0.00 0.00 75 1015.6
20260901091821 78 186 2.6 4.3 0.00 0.00 0.00 75 1018.6
20260901091547 78 186 2.6 4.3 0.00 0.00 0.00 75 1015.6
20260901091319 78 186 2.6 4.3 0.00 0.00 0.00 75 1018.6
20260901091036 78 183 1.7 4.3 0.00 0.00 0.00 74 1015.6
20260901090816 78 186 2.6 4.3 0.00 0.00 0.00 74 1018.5
20260901090528 78 189 2.6 4.3 0.00 0.00 0.00 74 1015.6
20260901090314 79 191 1.7 5.2 0.00 0.00 0.00 74 1018.7
20260901090012 78 167 2.6 5.2 0.00 0.00 0.00 74 1015.7
20260901085831 79 191 2.6 5.2 0.00 0.00 0.00 74 1018.7
20260901085503 78 191 3.5 5.2 0.00 0.00 0.00 74 1015.7
20260901085348 79 191 2.6 5.2 0.00 0.00 0.00 74 1018.7
20260901085034 78 209 2.6 5.2 0.00 0.00 0.00 74 1015.7
20260901084825 79 195 3.5 7.0 0.00 0.00 0.00 74 1018.6
20260901084524 79 194 1.7 7.0 0.00 0.00 0.00 74 1015.7
20260901084323 79 208 2.6 7.0 0.00 0.00 0.00 74 1018.7
20260901084006 79 204 1.7 4.3 0.00 0.00 0.00 74 1015.8
20260901083822 79 204 2.6 5.2 0.00 0.00 0.00 74 1018.7
20260901083600 79 178 1.7 5.2 0.00 0.00 0.00 74 1015.7
20260901083321 79 174 1.7 5.2 0.00 0.00 0.00 74 1018.6
20260901083051 79 174 2.6 5.2 0.00 0.00 0.00 74 1015.7
20260901082818 79 183 2.6 5.2 0.00 0.00 0.00 74 1018.6
20260901082542 79 192 2.6 5.2 0.00 0.00 0.00 74 1015.6
20260901082315 80 193 2.6 5.2 0.00 0.00 0.00 74 1018.5
20260901082035 79 193 2.6 5.2 0.00 0.00 0.00 74 1015.5
20260901081814 80 193 2.6 5.2 0.00 0.00 0.00 74 1018.5
20260901081516 79 193 1.7 5.2 0.00 0.00 0.00 73 1015.4
20260901081329 80 193 2.6 5.2 0.00 0.00 0.00 73 1018.4
20260901081006 79 193 2.6 6.1 0.00 0.00 0.00 73 1015.4
20260901080826 80 179 2.6 6.1 0.00 0.00 0.00 73 1018.3
20260901080601 80 205 2.6 6.1 0.00 0.00 0.00 73 1015.3
20260901080324 80 196 3.5 6.1 0.00 0.00 0.00 73 1018.3
20260901080052 80 195 2.6 8.7 0.00 0.00 0.00 73 1015.3
20260901075821 80 195 2.6 8.7 0.00 0.00 0.00 73 1018.2
20260901075545 80 181 3.5 8.7 0.00 0.00 0.00 73 1015.3
20260901075318 80 183 5.2 8.7 0.00 0.00 0.00 73 1018.2
20260901075036 80 177 4.3 8.7 0.00 0.00 0.00 73 1015.3
20260901074816 81 185 5.2 8.7 0.00 0.00 0.00 73 1018.2
20260901074518 80 172 4.3 7.8 0.00 0.00 0.00 72 1015.2
20260901074353 81 204 5.2 7.8 0.00 0.00 0.00 72 1018.1
20260901074054 80 242 4.3 7.8 0.00 0.00 0.00 72 1015.1
20260901073829 81 181 4.3 7.8 0.00 0.00 0.00 72 1018.1
20260901073540 80 199 4.3 9.6 0.00 0.00 0.00 72 1015.3
20260901073346 81 179 4.3 9.6 0.00 0.00 0.00 72 1018.2
20260901073003 81 201 5.2 10.4 0.00 0.00 0.00 72 1015.2
20260901072822 81 183 5.2 9.6 0.00 0.00 0.00 72 1018.1
20260901072556 81 195 5.2 9.6 0.00 0.00 0.00 71 1015.1
20260901072340 81 202 6.1 9.6 0.00 0.00 0.00 71 1018.1
20260901072045 81 201 6.1 10.4 0.00 0.00 0.00 71 1015.2
20260901071831 81 171 7.0 10.4 0.00 0.00 0.00 71 1018.3
20260901071534 81 193 4.3 9.6 0.00 0.00 0.00 71 1015.3
20260901071351 81 204 6.1 9.6 0.00 0.00 0.00 71 1018.2
20260901071056 81 197 5.2 11.3 0.00 0.00 0.00 71 1015.3
20260901070827 81 181 6.1 11.3 0.00 0.00 0.00 71 1018.2
20260901070553 81 187 6.1 11.3 0.00 0.00 0.00 71 1015.3